Location: Rounton
(54.4000°N, 1.3500°W)
Time: 21:39:31
(UTC+00:00)

Vanguard 1 - Pass Details

Date: 08 December 2021
Orbit: 652 x 3830 km, 34.2° (Epoch: 16 January)

Event Time Altitude Azimuth Distance (km) Brightness Sun altitude
Rises 01:50:28 0° 255° (WSW) 7,578 - -51.9°
Reaches altitude 10° 01:55:48 10° 249° (WSW) 6,768 - -51.3°
Maximum altitude 02:16:09 41° 190° (S) 4,668 - -49.1°
Exits shadow 02:21:56 36° 162° (SSE) 4,685 13.2 -48.4°
Drops below altitude 10° 02:33:17 10° 128° (SE) 5,757 14.1 -47.0°
Sets 02:37:22 0° 122° (ESE) 6,403 14.5 -46.5°
